Regional Weather Roundup
Issued by NWS

Home | Current Version | Previous Version | Text Only | Print | Product List | Glossary Off
Versions: 1 2 3 4 5 6 7 8 9 10 11 12 13 14 15 16 17 18 19 20 21 22 23 24 25 26 27 28 29 30 31 32 33 34 35 36 37 38 39 40 41 42 43 44 45 46 47 48 49 50

000
ASUS45 KABQ 041101
RWRNM
NEW MEXICO REGIONAL WEATHER ROUNDUP
NATIONAL WEATHER SERVICE ALBUQUERQUE NM
500 AM MDT FRI SEP 04 2015

NOTE: "FAIR" MEANS FEW OR NO CLOUDS BELOW 12,000 FEET AGL WITH NO
       SIGNIFICANT WEATHER OR OBSTRUCTIONS TO VISION.

      THIS PRODUCT IS RELEASED AS TWO VERSIONS.  ONE VERSION NEAR
      THE TOP OF THE HOUR CONTAINING PRELIMINARY DATA FROM ALBUQUERQUE
      AND OTHER STATIONS.  A FINAL VERSION WITH ADDITIONAL DATA IS
      ISSUED ABOUT 10 MINUTES AFTER THE HOUR.

NMZ501-503-504-510>518-041200-
NORTHWEST PLATEAU/NORTHCENTRAL MOUNTAINS

CITY           SKY/WX    TMP DP  RH WIND       PRES   REMARKS
FARMINGTON     CLOUDY    65  47  52 E9        30.06S
LOS ALAMOS     CLOUDY    63  41  45 NE3       30.19S
SANTA FE       CLOUDY    61  44  53 NE3       30.13R
TAOS           PTCLDY    52  36  54 E8        30.21S
ANGEL FIRE     FAIR      37  35  93 CALM      30.29S

$$
NMZ402-403-502-505>509-041200-
WESTCENTRAL MOUNTAINS/SOUTHWEST MOUNTAINS

CITY           SKY/WX    TMP DP  RH WIND       PRES   REMARKS
GALLUP         CLOUDY    57  48  72 CALM      30.15S
GRANTS         CLOUDY    58  53  83 CALM      30.17S
SILVER CITY      N/A     64  57  77 NW5       30.11S

$$
NMZ407-409-411-412-041200-
SOUTHERN DESERTS

CITY           SKY/WX    TMP DP  RH WIND       PRES   REMARKS
DEMING         CLOUDY    69  58  67 W3        30.02S
HOLLOMAN AFB   CLOUDY    72  53  52 SE3       29.97F
ALAMOGORDO     MOCLDY    68  50  52 CALM      30.00S
T OR C         CLOUDY    67  56  67 W8        30.03S

$$
NMZ519>523-041200-
CENTRAL VALLEYS/CENTRAL HIGHLANDS

CITY           SKY/WX    TMP DP  RH WIND       PRES   REMARKS
ALBUQUERQUE    MOCLDY    67  49  52 S8        30.08R
DOUBLE EAGLE   MOCLDY    60  47  61 SW8       30.12R
MORIARTY ARPT  FAIR      53  43  69 S6        30.15R
CLINES CORNERS CLEAR     56  45  66 W12       30.16S
BELEN          FAIR      62  51  65 CALM      30.07S
SOCORRO        NOT AVBL

$$
NMZ524>526-539-540-041200-
SOUTHCENTRAL MOUNTAINS

CITY           SKY/WX    TMP DP  RH WIND       PRES   REMARKS
RUIDOSO        MOCLDY    63  46  55 W9        30.19S

$$
NMZ527>531-041200-
NORTHEAST HIGHLANDS/NORTHEAST PLAINS

CITY           SKY/WX    TMP DP  RH WIND       PRES   REMARKS
LAS VEGAS      PTCLDY    56  43  61 NE3       30.14S
RATON          CLEAR     51  46  83 NE6       30.09S
CLAYTON        CLEAR     64  50  60 SW7       30.00S

$$
NMZ532>537-041200-
EASTCENTRAL PLAINS

CITY           SKY/WX    TMP DP  RH WIND       PRES   REMARKS
TUCUMCARI      CLEAR     69  49  48 SW10      29.96S
CANNON AFB     PTCLDY    69  52  54 SW5       30.00F
CLOVIS AIRPORT PTCLDY    66  48  52 W3        30.01F

$$
NMZ028-029-538-041200-
SOUTHEAST PLAINS

CITY           SKY/WX    TMP DP  RH WIND       PRES   REMARKS
ROSWELL        MOCLDY    71  48  43 S5        29.95S
ARTESIA        CLEAR     70  50  49 N5        29.95S
CARLSBAD       CLEAR     72  49  44 S8        29.91F
HOBBS            N/A     64  52  63 CALM      29.98S


$$


USA.gov is the U.S. government's official web portal to all federal, state and local government web resources and services.